Weather History for KSSC - December, 2013

Change the Weather History Date:

Monday, December 9, 2013

  Actual Average Record
Temperature  
Mean Temperature 46 °F -  
Max Temperature 55 °F 57 °F 77 °F (2004)
Min Temperature 37 °F 36 °F 15 °F (2006)
Degree Days  
Heating Degree Days 19    
Moisture  
Dew Point 45 °F    
Average Humidity 97    
Maximum Humidity 100    
Minimum Humidity 93    
Precipitation  
Precipitation 0.01 in - - ()
Sea Level Pressure  
Sea Level Pressure 30.15 in    
Wind  
Wind Speed 4 mph (NE)    
Max Wind Speed 7 mph    
Max Gust Speed -    
Visibility 2 miles    
Events Fog , Rain    
Averages and records for this station are not official NWS values.
T = Trace of Precipitation, MM = Missing Value Source: NWS Daily Summary

Daily Weather History Graph

Daily Weather History Graph

Search for Another Location

Airport or City:

Trip Planner

Search our weather history database for the weather conditions in past years. The results will help you decide how hot, cold, wet, or windy it might be!

Date:

Astronomy

Dec. 09, 2013 Rise Set
Actual Time 7:15 AM EST 5:12 PM EST
Civil Twilight 6:48 AM EST 5:40 PM EST
Nautical Twilight 6:17 AM EST 6:11 PM EST
Astronomical Twilight 5:46 AM EST 6:42 PM EST
Moon 12:24 PM EST (12/9) No Moon Set
Length of Visible Light 10h 52m
Length of Day
9h 57m
Waxing Crescent, 51% of the Moon is Illuminated
Dec 9
Waxing Crescent
Dec 17
Full
Dec 25
Last Quarter
Jan 1
New
Jan 7
First Quarter

Hourly Weather History & Observations

Time (EST) Temp. Windchill Dew Point Humidity Pressure Visibility Wind Dir Wind Speed Gust Speed Precip Events Conditions
12:13 AM 39.2 °F 34.2 °F 37.4 °F 93% 30.25 in 2.5 mi NE 6.9 mph - N/A   Overcast
12:38 AM 37.4 °F 32.1 °F 37.4 °F 100% 30.25 in 1.8 mi NE 6.9 mph - N/A   Overcast
12:58 AM 38.3 °F 34.8 °F 37.4 °F 97% 30.25 in 1.8 mi NE 4.6 mph - N/A   Overcast
1:03 AM 37.4 °F 32.8 °F 37.4 °F 100% 30.24 in 2.0 mi NE 5.8 mph - N/A   Overcast
1:28 AM 39.2 °F 35.0 °F 37.4 °F 93% 30.23 in 3.0 mi NE 5.8 mph - N/A   Overcast
1:58 AM 38.5 °F 34.1 °F 37.6 °F 97% 30.24 in 3.0 mi NE 5.8 mph - N/A   Overcast
2:06 AM 39.2 °F 37.0 °F 37.4 °F 93% 30.23 in 3.0 mi NE 3.5 mph - N/A   Overcast
2:11 AM 39.2 °F 35.9 °F 37.4 °F 93% 30.23 in 2.5 mi NE 4.6 mph - N/A   Overcast
2:21 AM 39.2 °F 35.9 °F 37.4 °F 93% 30.23 in 3.0 mi NE 4.6 mph - N/A Rain Light Rain
2:27 AM 39.2 °F 37.0 °F 37.4 °F 93% 30.23 in 2.5 mi NE 3.5 mph - N/A Rain Light Rain
2:42 AM 39.2 °F - 37.4 °F 93% 30.23 in 2.5 mi Calm Calm - N/A   Overcast
2:47 AM 39.2 °F 37.0 °F 37.4 °F 93% 30.23 in 3.0 mi NE 3.5 mph - N/A   Overcast
2:58 AM 39.2 °F 37.0 °F 37.4 °F 93% 30.23 in 2.5 mi NE 3.5 mph - 0.00 in   Overcast
3:08 AM 39.2 °F 35.9 °F 37.4 °F 93% 30.22 in 3.0 mi ENE 4.6 mph - N/A   Overcast
3:33 AM 39.2 °F - 37.4 °F 93% 30.22 in 3.0 mi East 2.3 mph - N/A   Overcast
3:38 AM 39.2 °F - 37.4 °F 93% 30.22 in 3.0 mi ENE 1.2 mph - N/A   Overcast
3:48 AM 39.2 °F - 37.4 °F 93% 30.22 in 4.0 mi NNE 2.3 mph - N/A   Overcast
3:53 AM 39.2 °F - 39.2 °F 100% 30.22 in 4.0 mi North 2.3 mph - N/A   Overcast
3:58 AM 39.0 °F 36.8 °F 38.3 °F 97% 30.22 in 4.0 mi NNE 3.5 mph - N/A   Overcast
4:08 AM 39.2 °F - 37.4 °F 93% 30.20 in 4.0 mi NE 2.3 mph - N/A   Overcast
4:13 AM 39.2 °F 37.0 °F 37.4 °F 93% 30.20 in 3.0 mi ENE 3.5 mph - N/A   Overcast
4:23 AM 39.2 °F 35.9 °F 37.4 °F 93% 30.19 in 3.0 mi ENE 4.6 mph - N/A   Overcast
4:33 AM 39.2 °F - 37.4 °F 93% 30.19 in 3.0 mi ENE 2.3 mph - N/A   Overcast
4:38 AM 39.2 °F 37.0 °F 37.4 °F 93% 30.19 in 3.0 mi NE 3.5 mph - N/A   Overcast
4:58 AM 39.4 °F 35.2 °F 38.7 °F 97% 30.20 in 3.0 mi North 5.8 mph - N/A   Overcast
5:10 AM 39.2 °F - 39.2 °F 100% 30.19 in 3.0 mi North 2.3 mph - N/A   Overcast
5:16 AM 39.2 °F 37.0 °F 39.2 °F 100% 30.19 in 2.5 mi NNE 3.5 mph - N/A   Overcast
5:21 AM 39.2 °F 35.9 °F 39.2 °F 100% 30.19 in 3.0 mi NNE 4.6 mph - N/A   Overcast
5:26 AM 39.2 °F 37.0 °F 39.2 °F 100% 30.19 in 3.0 mi NNE 3.5 mph - N/A   Overcast
5:36 AM 39.2 °F 37.0 °F 39.2 °F 100% 30.19 in 3.0 mi NNE 3.5 mph - N/A   Overcast
5:37 AM 39.2 °F 37.0 °F 39.2 °F 100% 30.19 in 3.0 mi NNE 3.5 mph - N/A   Overcast
5:58 AM 39.2 °F - 39.2 °F 100% 30.19 in 4.0 mi NNE 2.3 mph - 0.00 in   Overcast
6:18 AM 39.2 °F - 39.2 °F 100% 30.17 in 3.0 mi ENE 2.3 mph - N/A   Overcast
6:30 AM 39.2 °F 37.0 °F 39.2 °F 100% 30.17 in 2.0 mi NE 3.5 mph - N/A   Overcast
6:48 AM 39.2 °F 35.9 °F 39.2 °F 100% 30.17 in 1.8 mi ENE 4.6 mph - N/A   Overcast
6:58 AM 39.2 °F 37.0 °F 39.2 °F 100% 30.19 in 1.5 mi NNE 3.5 mph - N/A   Overcast
7:08 AM 39.2 °F - 39.2 °F 100% 30.19 in 5.0 mi NE 2.3 mph - N/A   Overcast
7:13 AM 39.2 °F - 39.2 °F 100% 30.19 in 4.0 mi NE 2.3 mph - N/A   Overcast
7:28 AM 39.2 °F 37.0 °F 39.2 °F 100% 30.18 in 4.0 mi East 3.5 mph - N/A   Overcast
7:33 AM 41.0 °F - 39.2 °F 93% 30.18 in 1.5 mi East 2.3 mph - N/A   Overcast
7:50 AM 41.0 °F - 39.2 °F 93% 30.18 in 1.0 mi East 2.3 mph - N/A   Overcast
7:58 AM 41.0 °F - 39.2 °F 93% 30.19 in 0.8 mi East 1.2 mph - N/A   Overcast
8:58 AM 41.0 °F 39.0 °F 41.0 °F 100% 30.18 in 0.8 mi ESE 3.5 mph - N/A   Mist
9:58 AM 42.1 °F - 41.4 °F 97% 30.20 in 0.9 mi SSE 1.2 mph - N/A   Overcast
10:58 AM 43.5 °F - 42.6 °F 97% 30.19 in 1.0 mi Calm Calm - N/A   Overcast
11:26 AM 44.6 °F - 42.8 °F 93% 30.17 in 0.8 mi Calm Calm - N/A   Light Drizzle
11:58 AM 45.5 °F - 44.6 °F 97% 30.17 in 0.6 mi West 2.3 mph - N/A   Mist
12:58 PM 48.4 °F - 47.3 °F 96% 30.14 in 1.2 mi West 2.3 mph - N/A   Overcast
1:24 PM 50.0 °F - 48.2 °F 94% 30.11 in 2.2 mi SW 3.5 mph - N/A   Overcast
1:58 PM 51.3 °F - 49.8 °F 95% 30.11 in 2.5 mi SSW 3.5 mph - N/A   Overcast
2:56 PM 51.8 °F - 51.8 °F 100% 30.09 in 2.5 mi South 4.6 mph - N/A   Overcast
3:18 PM 53.6 °F - 51.8 °F 94% 30.08 in 3.0 mi South 3.5 mph - N/A   Overcast
3:58 PM 55.4 °F - 53.6 °F 94% 30.09 in 4.0 mi South 5.8 mph - N/A   Overcast
4:55 PM 53.6 °F - 51.8 °F 94% 30.11 in 3.0 mi West 4.6 mph - N/A   Overcast
5:03 PM 53.6 °F - 51.8 °F 94% 30.09 in 2.0 mi Calm Calm - N/A   Overcast
5:30 PM 53.6 °F - 51.8 °F 94% 30.09 in 1.5 mi Calm Calm - N/A   Overcast
5:34 PM 53.6 °F - 51.8 °F 94% 30.09 in 1.2 mi Calm Calm - N/A   Overcast
5:43 PM 53.6 °F - 51.8 °F 94% 30.10 in 1.0 mi SW 3.5 mph - N/A   Overcast
5:58 PM 53.6 °F - 51.8 °F 94% 30.11 in 0.8 mi SW 2.3 mph - N/A   Overcast
6:09 PM 53.6 °F - 51.8 °F 94% 30.10 in 1.5 mi SW 2.3 mph - N/A   Overcast
6:24 PM 53.6 °F - 51.8 °F 94% 30.10 in 1.2 mi SW 1.2 mph - N/A   Overcast
6:44 PM 53.6 °F - 51.8 °F 94% 30.11 in 1.0 mi SSW 2.3 mph - N/A   Overcast
6:58 PM 53.1 °F - 52.2 °F 97% 30.11 in 1.0 mi SSE 2.3 mph - N/A   Overcast
7:23 PM 53.6 °F - 51.8 °F 94% 30.10 in 0.8 mi South 2.3 mph - N/A   Overcast
7:58 PM 53.2 °F - 52.3 °F 97% 30.11 in 0.8 mi SSW 1.2 mph - N/A   Mist
8:03 PM 53.6 °F - 51.8 °F 94% 30.10 in 0.5 mi Calm Calm - N/A Fog Fog
8:48 PM 53.6 °F - 53.6 °F 100% 30.10 in 0.5 mi South 2.3 mph - N/A Fog Fog
8:58 PM 53.6 °F - 53.6 °F 100% 30.11 in 0.5 mi Calm Calm - N/A Fog Fog
9:13 PM 53.6 °F - 53.6 °F 100% 30.09 in 0.2 mi NNW 1.2 mph - N/A Fog Fog
9:23 PM 53.6 °F - 53.6 °F 100% 30.10 in 0.2 mi Calm Calm - N/A Fog Fog
9:24 PM 53.6 °F - 53.6 °F 100% 30.10 in 0.2 mi Calm Calm - N/A Fog , Rain Light Rain
9:39 PM 53.6 °F - 53.6 °F 100% 30.09 in 0.2 mi Calm Calm - N/A Fog Light Drizzle
9:49 PM 53.6 °F - 53.6 °F 100% 30.09 in 0.2 mi Calm Calm - N/A Fog Fog
9:58 PM 53.8 °F - 52.9 °F 97% 30.09 in 0.2 mi Calm Calm - 0.01 in Fog Fog
9:59 PM 53.6 °F - 53.6 °F 100% 30.08 in 0.2 mi East 1.2 mph - N/A Fog Light Drizzle
10:19 PM 53.6 °F - 53.6 °F 100% 30.08 in 0.5 mi Calm Calm - N/A Fog , Rain Light Rain
10:28 PM 53.6 °F - 53.6 °F 100% 30.07 in 0.5 mi Calm Calm - N/A Fog Fog
10:39 PM 53.6 °F - 53.6 °F 100% 30.07 in 0.5 mi Calm Calm - N/A Fog Fog
10:58 PM 54.0 °F - 53.1 °F 97% 30.07 in 0.5 mi North 2.3 mph - 0.00 in Fog Fog
11:33 PM 53.6 °F - 53.6 °F 100% 30.04 in 0.8 mi North 1.2 mph - N/A   Mist
11:38 PM 53.6 °F - 53.6 °F 100% 30.04 in 1.0 mi North 1.2 mph - N/A   Mist
11:53 PM 53.6 °F - 53.6 °F 100% 30.03 in 1.2 mi North 2.3 mph - N/A   Overcast
11:58 PM 54.3 °F - 53.6 °F 97% 30.04 in 1.2 mi North 2.3 mph - N/A   Overcast